Year,Month,Day,Hour,Minute,Value (Times are PST for temperature in C)
2018,10,19,00,00,7.70
2018,10,19,00,01,7.70
2018,10,19,00,02,7.70
2018,10,19,00,03,7.70
2018,10,19,00,04,7.70
2018,10,19,00,05,7.70
2018,10,19,00,06,7.70
2018,10,19,00,07,7.80
2018,10,19,00,08,7.80
2018,10,19,00,09,7.80
2018,10,19,00,10,7.80
2018,10,19,00,11,7.80
2018,10,19,00,12,7.70
2018,10,19,00,13,7.70
2018,10,19,00,14,7.70
2018,10,19,00,15,7.70
2018,10,19,00,16,7.70
2018,10,19,00,17,7.60
2018,10,19,00,18,7.60
2018,10,19,00,19,7.60
2018,10,19,00,20,7.60
2018,10,19,00,21,7.60
2018,10,19,00,22,7.60
2018,10,19,00,23,7.60
2018,10,19,00,24,7.60
2018,10,19,00,25,7.60
2018,10,19,00,26,7.60
2018,10,19,00,27,7.60
2018,10,19,00,28,7.50
2018,10,19,00,29,7.50
2018,10,19,00,30,7.50
2018,10,19,00,31,7.40
2018,10,19,00,32,7.40
2018,10,19,00,33,7.40
2018,10,19,00,34,7.40
2018,10,19,00,35,7.40
2018,10,19,00,36,7.40
2018,10,19,00,37,7.40
2018,10,19,00,38,7.40
2018,10,19,00,39,7.40
2018,10,19,00,40,7.40
2018,10,19,00,41,7.40
2018,10,19,00,42,7.30
2018,10,19,00,43,7.30
2018,10,19,00,44,7.30
2018,10,19,00,45,7.30
2018,10,19,00,46,7.30
2018,10,19,00,47,7.20
2018,10,19,00,48,7.20
2018,10,19,00,49,7.10
2018,10,19,00,50,7.10
2018,10,19,00,51,7.10
2018,10,19,00,52,7.10
2018,10,19,00,53,7.00
2018,10,19,00,54,7.00
2018,10,19,00,55,7.00
2018,10,19,00,56,6.90
2018,10,19,00,57,6.90
2018,10,19,00,58,6.90
2018,10,19,00,59,6.90
2018,10,19,01,00,6.80
2018,10,19,01,01,6.80
2018,10,19,01,02,6.80
2018,10,19,01,03,6.80
2018,10,19,01,04,6.80
2018,10,19,01,05,6.80
2018,10,19,01,06,6.80
2018,10,19,01,07,6.70
2018,10,19,01,08,6.70
2018,10,19,01,09,6.70
2018,10,19,01,10,6.70
2018,10,19,01,11,6.70
2018,10,19,01,12,6.70
2018,10,19,01,13,6.70
2018,10,19,01,14,6.60
2018,10,19,01,15,6.60
2018,10,19,01,16,6.60
2018,10,19,01,17,6.60
2018,10,19,01,18,6.60
2018,10,19,01,19,6.70
2018,10,19,01,20,6.70
2018,10,19,01,21,6.80
2018,10,19,01,22,6.80
2018,10,19,01,23,6.90
2018,10,19,01,24,6.90
2018,10,19,01,25,6.90
2018,10,19,01,26,6.90
2018,10,19,01,27,6.90
2018,10,19,01,28,6.90
2018,10,19,01,29,6.90
2018,10,19,01,30,6.80
2018,10,19,01,31,6.80
2018,10,19,01,32,6.80
2018,10,19,01,33,6.70
2018,10,19,01,34,6.70
2018,10,19,01,35,6.70
2018,10,19,01,36,6.70
2018,10,19,01,37,6.70
2018,10,19,01,38,6.70
2018,10,19,01,39,6.70
2018,10,19,01,40,6.70
2018,10,19,01,41,6.70
2018,10,19,01,42,6.70
2018,10,19,01,43,6.70
2018,10,19,01,44,6.60
2018,10,19,01,45,6.60
2018,10,19,01,46,6.60
2018,10,19,01,47,6.50
2018,10,19,01,48,6.50
2018,10,19,01,49,6.50
2018,10,19,01,50,6.50
2018,10,19,01,51,6.50
2018,10,19,01,52,6.50
2018,10,19,01,53,6.50
2018,10,19,01,54,6.50
2018,10,19,01,55,6.50
2018,10,19,01,56,6.50
2018,10,19,01,57,6.50
2018,10,19,01,58,6.50
2018,10,19,01,59,6.50
2018,10,19,02,00,6.50
2018,10,19,02,01,6.50
2018,10,19,02,02,6.50
2018,10,19,02,03,6.50
2018,10,19,02,04,6.40
2018,10,19,02,05,6.40
2018,10,19,02,06,6.40
2018,10,19,02,07,6.40
2018,10,19,02,08,6.40
2018,10,19,02,09,6.40
2018,10,19,02,10,6.40
2018,10,19,02,11,6.40
2018,10,19,02,12,6.40
2018,10,19,02,13,6.40
2018,10,19,02,14,6.40
2018,10,19,02,15,6.40
2018,10,19,02,16,6.40
2018,10,19,02,17,6.30
2018,10,19,02,18,6.30
2018,10,19,02,19,6.30
2018,10,19,02,20,6.30
2018,10,19,02,21,6.30
2018,10,19,02,22,6.30
2018,10,19,02,23,6.30
2018,10,19,02,24,6.30
2018,10,19,02,25,6.30
2018,10,19,02,26,6.30
2018,10,19,02,27,6.30
2018,10,19,02,28,6.20
2018,10,19,02,29,6.20
2018,10,19,02,30,6.30
2018,10,19,02,31,6.30
2018,10,19,02,32,6.30
2018,10,19,02,33,6.30
2018,10,19,02,34,6.30
2018,10,19,02,35,6.30
2018,10,19,02,36,6.30
2018,10,19,02,37,6.30
2018,10,19,02,38,6.30
2018,10,19,02,39,6.30
2018,10,19,02,40,6.20
2018,10,19,02,41,6.20
2018,10,19,02,42,6.20
2018,10,19,02,43,6.20
2018,10,19,02,44,6.20
2018,10,19,02,45,6.20
2018,10,19,02,46,6.10
2018,10,19,02,47,6.10
2018,10,19,02,48,6.10
2018,10,19,02,49,6.10
2018,10,19,02,50,6.10
2018,10,19,02,51,6.10
2018,10,19,02,52,6.10
2018,10,19,02,53,6.00
2018,10,19,02,54,6.00
2018,10,19,02,55,6.00
2018,10,19,02,56,6.00
2018,10,19,02,57,5.90
2018,10,19,02,58,5.90
2018,10,19,02,59,5.90
2018,10,19,03,00,5.90
2018,10,19,03,01,5.90
2018,10,19,03,02,5.90
2018,10,19,03,03,5.90
2018,10,19,03,04,5.90
2018,10,19,03,05,5.90
2018,10,19,03,06,5.90
2018,10,19,03,07,5.90
2018,10,19,03,08,6.00
2018,10,19,03,09,6.00
2018,10,19,03,10,6.00
2018,10,19,03,11,6.10
2018,10,19,03,12,6.10
2018,10,19,03,13,6.10
2018,10,19,03,14,6.10
2018,10,19,03,15,6.10
2018,10,19,03,16,6.10
2018,10,19,03,17,6.10
2018,10,19,03,18,6.10
2018,10,19,03,19,6.10
2018,10,19,03,20,6.10
2018,10,19,03,21,6.20
2018,10,19,03,22,6.20
2018,10,19,03,23,6.20
2018,10,19,03,24,6.20
2018,10,19,03,25,6.20
2018,10,19,03,26,6.20
2018,10,19,03,27,6.20
2018,10,19,03,28,6.20
2018,10,19,03,29,6.10
2018,10,19,03,30,6.10
2018,10,19,03,31,6.10
2018,10,19,03,32,6.10
2018,10,19,03,33,6.10
2018,10,19,03,34,6.00
2018,10,19,03,35,6.00
2018,10,19,03,36,6.00
2018,10,19,03,37,5.90
2018,10,19,03,38,5.90
2018,10,19,03,39,5.90
2018,10,19,03,40,5.80
2018,10,19,03,41,5.80
2018,10,19,03,42,5.80
2018,10,19,03,43,5.70
2018,10,19,03,44,5.70
2018,10,19,03,45,5.70
2018,10,19,03,46,5.60
2018,10,19,03,47,5.60
2018,10,19,03,48,5.60
2018,10,19,03,49,5.60
2018,10,19,03,50,5.50
2018,10,19,03,51,5.40
2018,10,19,03,52,5.40
2018,10,19,03,53,5.50
2018,10,19,03,54,5.50
2018,10,19,03,55,5.50
2018,10,19,03,56,5.60
2018,10,19,03,57,5.60
2018,10,19,03,58,5.60
2018,10,19,03,59,5.60
2018,10,19,04,00,5.60
2018,10,19,04,01,5.60
2018,10,19,04,02,5.60
2018,10,19,04,03,5.60
2018,10,19,04,04,5.50
2018,10,19,04,05,5.50
2018,10,19,04,06,5.50
2018,10,19,04,07,5.40
2018,10,19,04,08,5.40
2018,10,19,04,09,5.40
2018,10,19,04,10,5.40
2018,10,19,04,11,5.40
2018,10,19,04,12,5.40
2018,10,19,04,13,5.40
2018,10,19,04,14,5.40
2018,10,19,04,15,5.40
2018,10,19,04,16,5.30
2018,10,19,04,17,5.30
2018,10,19,04,18,5.30
2018,10,19,04,19,5.20
2018,10,19,04,20,5.20
2018,10,19,04,21,5.20
2018,10,19,04,22,5.20
2018,10,19,04,23,5.20
2018,10,19,04,24,5.10
2018,10,19,04,25,5.10
2018,10,19,04,26,5.10
2018,10,19,04,27,5.10
2018,10,19,04,28,5.10
2018,10,19,04,29,5.10
2018,10,19,04,30,5.10
2018,10,19,04,31,5.10
2018,10,19,04,32,5.10
2018,10,19,04,33,5.10
2018,10,19,04,34,5.10
2018,10,19,04,35,5.10
2018,10,19,04,36,5.10
2018,10,19,04,37,5.10
2018,10,19,04,38,5.00
2018,10,19,04,39,5.00
2018,10,19,04,40,5.00
2018,10,19,04,41,4.90
2018,10,19,04,42,4.90
2018,10,19,04,43,4.90
2018,10,19,04,44,4.90
2018,10,19,04,45,4.90
2018,10,19,04,46,4.90
2018,10,19,04,47,4.90
2018,10,19,04,48,5.00
2018,10,19,04,49,5.00
2018,10,19,04,50,5.10
2018,10,19,04,51,5.10
2018,10,19,04,52,5.10
2018,10,19,04,53,5.10
2018,10,19,04,54,5.10
2018,10,19,04,55,5.10
2018,10,19,04,56,5.00
2018,10,19,04,57,5.10
2018,10,19,04,58,5.10
2018,10,19,04,59,5.10
2018,10,19,05,00,5.10
2018,10,19,05,01,5.10
2018,10,19,05,02,5.10
2018,10,19,05,03,5.10
2018,10,19,05,04,5.10
2018,10,19,05,05,5.10
2018,10,19,05,06,5.10
2018,10,19,05,07,5.10
2018,10,19,05,08,5.10
2018,10,19,05,09,5.00
2018,10,19,05,10,5.00
2018,10,19,05,11,5.00
2018,10,19,05,12,5.00
2018,10,19,05,13,5.10
2018,10,19,05,14,5.10
2018,10,19,05,15,5.20
2018,10,19,05,16,5.20
2018,10,19,05,17,5.20
2018,10,19,05,18,5.20
2018,10,19,05,19,5.20
2018,10,19,05,20,5.20
2018,10,19,05,21,5.20
2018,10,19,05,22,5.20
2018,10,19,05,23,5.20
2018,10,19,05,24,5.20
2018,10,19,05,25,5.20
2018,10,19,05,26,5.20
2018,10,19,05,27,5.20
2018,10,19,05,28,5.20
2018,10,19,05,29,5.20
2018,10,19,05,30,5.20
2018,10,19,05,31,5.20
2018,10,19,05,32,5.20
2018,10,19,05,33,5.20
2018,10,19,05,34,5.20
2018,10,19,05,35,5.10
2018,10,19,05,36,5.10
2018,10,19,05,37,5.10
2018,10,19,05,38,5.10
2018,10,19,05,39,5.10
2018,10,19,05,40,5.10
2018,10,19,05,41,5.10
2018,10,19,05,42,5.10
2018,10,19,05,43,5.10
2018,10,19,05,44,5.10
2018,10,19,05,45,5.10
2018,10,19,05,46,5.10
2018,10,19,05,47,5.10
2018,10,19,05,48,5.10
2018,10,19,05,49,5.00
2018,10,19,05,50,5.00
2018,10,19,05,51,5.00
2018,10,19,05,52,5.00
2018,10,19,05,53,5.00
2018,10,19,05,54,5.00
2018,10,19,05,55,4.90
2018,10,19,05,56,4.90
2018,10,19,05,57,4.90
2018,10,19,05,58,4.90
2018,10,19,05,59,4.90
2018,10,19,06,00,4.90
2018,10,19,06,01,5.00
2018,10,19,06,02,5.00
2018,10,19,06,03,5.10
2018,10,19,06,04,5.10
2018,10,19,06,05,5.10
2018,10,19,06,06,5.00
2018,10,19,06,07,5.00
2018,10,19,06,08,4.90
2018,10,19,06,09,4.80
2018,10,19,06,10,4.80
2018,10,19,06,11,4.80
2018,10,19,06,12,4.80
2018,10,19,06,13,4.80
2018,10,19,06,14,4.70
2018,10,19,06,15,4.70
2018,10,19,06,16,4.70
2018,10,19,06,17,4.70
2018,10,19,06,18,4.70
2018,10,19,06,19,4.70
2018,10,19,06,20,4.60
2018,10,19,06,21,4.60
2018,10,19,06,22,4.60
2018,10,19,06,23,4.60
2018,10,19,06,24,4.60
2018,10,19,06,25,4.60
2018,10,19,06,26,4.70
2018,10,19,06,27,4.70
2018,10,19,06,28,4.70
2018,10,19,06,29,4.70
2018,10,19,06,30,4.70
2018,10,19,06,31,4.60
2018,10,19,06,32,4.60
2018,10,19,06,33,4.60
2018,10,19,06,34,4.60
2018,10,19,06,35,4.50
2018,10,19,06,36,4.50
2018,10,19,06,37,4.50
2018,10,19,06,38,4.40
2018,10,19,06,39,4.40
2018,10,19,06,40,4.40
2018,10,19,06,41,4.40
2018,10,19,06,42,4.40
2018,10,19,06,43,4.40
2018,10,19,06,44,4.40
2018,10,19,06,45,4.40
2018,10,19,06,46,4.40
2018,10,19,06,47,4.40
2018,10,19,06,48,4.40
2018,10,19,06,49,4.40
2018,10,19,06,50,4.50
2018,10,19,06,51,4.50
2018,10,19,06,52,4.50
2018,10,19,06,53,4.60
2018,10,19,06,54,4.60
2018,10,19,06,55,4.60
2018,10,19,06,56,4.60
2018,10,19,06,57,4.60
2018,10,19,06,58,4.60
2018,10,19,06,59,4.60
2018,10,19,07,00,4.60
2018,10,19,07,01,4.60
2018,10,19,07,02,4.60
2018,10,19,07,03,4.50
2018,10,19,07,04,4.50
2018,10,19,07,05,4.50
2018,10,19,07,06,4.40
2018,10,19,07,07,4.40
2018,10,19,07,08,4.40
2018,10,19,07,09,4.40
2018,10,19,07,10,4.40
2018,10,19,07,11,4.40
2018,10,19,07,12,4.40
2018,10,19,07,13,4.40
2018,10,19,07,14,4.40
2018,10,19,07,15,4.40
2018,10,19,07,16,4.40
2018,10,19,07,17,4.40
2018,10,19,07,18,4.40
2018,10,19,07,19,4.40
2018,10,19,07,20,4.40
2018,10,19,07,21,4.40
2018,10,19,07,22,4.50
2018,10,19,07,23,4.50
2018,10,19,07,24,4.50
2018,10,19,07,25,4.60
2018,10,19,07,26,4.70
2018,10,19,07,27,4.70
2018,10,19,07,28,4.80
2018,10,19,07,29,4.80
2018,10,19,07,30,4.70
2018,10,19,07,31,4.70
2018,10,19,07,32,4.70
2018,10,19,07,33,4.70
2018,10,19,07,34,4.60
2018,10,19,07,35,4.60
2018,10,19,07,36,4.60
2018,10,19,07,37,4.50
2018,10,19,07,38,4.50
2018,10,19,07,39,4.40
2018,10,19,07,40,4.40
2018,10,19,07,41,4.40
2018,10,19,07,42,4.40
2018,10,19,07,43,4.40
2018,10,19,07,44,4.40
2018,10,19,07,45,4.40
2018,10,19,07,46,4.40
2018,10,19,07,47,4.30
2018,10,19,07,48,4.30
2018,10,19,07,49,4.30
2018,10,19,07,50,4.30
2018,10,19,07,51,4.30
2018,10,19,07,52,4.30
2018,10,19,07,53,4.30
2018,10,19,07,54,4.30
2018,10,19,07,55,4.30
2018,10,19,07,56,4.40
2018,10,19,07,57,4.30
2018,10,19,07,58,4.30
2018,10,19,07,59,4.30
2018,10,19,08,00,4.30
2018,10,19,08,01,4.30
2018,10,19,08,02,4.30
2018,10,19,08,03,4.30
2018,10,19,08,04,4.30
2018,10,19,08,05,4.30
2018,10,19,08,06,4.30
2018,10,19,08,07,4.30
2018,10,19,08,08,4.40
2018,10,19,08,09,4.40
2018,10,19,08,10,4.40
2018,10,19,08,11,4.40
2018,10,19,08,12,4.40
2018,10,19,08,13,4.40
2018,10,19,08,14,4.40
2018,10,19,08,15,4.40
2018,10,19,08,16,4.40
2018,10,19,08,17,4.50
2018,10,19,08,18,4.50
2018,10,19,08,19,4.50
2018,10,19,08,20,4.50
2018,10,19,08,21,4.40
2018,10,19,08,22,4.40
2018,10,19,08,23,4.40
2018,10,19,08,24,4.40
2018,10,19,08,25,4.50
2018,10,19,08,26,4.50
2018,10,19,08,27,4.50
2018,10,19,08,28,4.50
2018,10,19,08,29,4.50
2018,10,19,08,30,4.50
2018,10,19,08,31,4.50
2018,10,19,08,32,4.50
2018,10,19,08,33,4.60
2018,10,19,08,34,4.60
2018,10,19,08,35,4.60
2018,10,19,08,36,4.60
2018,10,19,08,37,4.60
2018,10,19,08,38,4.60
2018,10,19,08,39,4.60
2018,10,19,08,40,4.60
2018,10,19,08,41,4.60
2018,10,19,08,42,4.60
2018,10,19,08,43,4.60
2018,10,19,08,44,4.60
2018,10,19,08,45,4.60
2018,10,19,08,46,4.60
2018,10,19,08,47,4.60
2018,10,19,08,48,4.60
2018,10,19,08,49,4.70
2018,10,19,08,50,4.70
2018,10,19,08,51,4.70
2018,10,19,08,52,4.80
2018,10,19,08,53,4.80
2018,10,19,08,54,4.80
2018,10,19,08,55,4.90
2018,10,19,08,56,4.90
2018,10,19,08,57,5.00
2018,10,19,08,58,5.00
2018,10,19,08,59,5.00
2018,10,19,09,00,5.10
2018,10,19,09,01,5.10
2018,10,19,09,02,5.20
2018,10,19,09,03,5.30
2018,10,19,09,04,5.30
2018,10,19,09,05,5.40
2018,10,19,09,06,5.40
2018,10,19,09,07,5.50
2018,10,19,09,08,5.60
2018,10,19,09,09,5.60
2018,10,19,09,10,5.70
2018,10,19,09,11,5.80
2018,10,19,09,12,5.80
2018,10,19,09,13,5.90
2018,10,19,09,14,6.00
2018,10,19,09,15,6.10
2018,10,19,09,16,6.20
2018,10,19,09,17,6.30
2018,10,19,09,18,6.30
2018,10,19,09,19,6.40
2018,10,19,09,20,6.50
2018,10,19,09,21,6.60
2018,10,19,09,22,6.70
2018,10,19,09,23,6.80
2018,10,19,09,24,6.90
2018,10,19,09,25,7.00
2018,10,19,09,26,7.10
2018,10,19,09,27,7.20
2018,10,19,09,28,7.30
2018,10,19,09,29,7.40
2018,10,19,09,30,7.50
2018,10,19,09,31,7.60
2018,10,19,09,32,7.70
2018,10,19,09,33,7.80
2018,10,19,09,34,7.90
2018,10,19,09,35,7.90
2018,10,19,09,36,8.00
2018,10,19,09,37,8.20
2018,10,19,09,38,8.30
2018,10,19,09,39,8.30
2018,10,19,09,40,8.40
2018,10,19,09,41,8.50
2018,10,19,09,42,8.60
2018,10,19,09,43,8.70
2018,10,19,09,44,8.70
2018,10,19,09,45,8.80
2018,10,19,09,46,8.90
2018,10,19,09,47,9.00
2018,10,19,09,48,9.00
2018,10,19,09,49,9.10
2018,10,19,09,50,9.20
2018,10,19,09,51,9.30
2018,10,19,09,52,9.30
2018,10,19,09,53,9.30
2018,10,19,09,54,9.40
2018,10,19,09,55,9.50
2018,10,19,09,56,9.50
2018,10,19,09,57,9.60
2018,10,19,09,58,9.70
2018,10,19,09,59,9.80
2018,10,19,10,00,9.80
2018,10,19,10,01,9.90
2018,10,19,10,02,9.90
2018,10,19,10,03,10.00
2018,10,19,10,04,10.00
2018,10,19,10,05,10.00
2018,10,19,10,06,10.00
2018,10,19,10,07,10.00
2018,10,19,10,08,10.00
2018,10,19,10,09,9.90
2018,10,19,10,10,9.90
2018,10,19,10,11,9.90
2018,10,19,10,12,9.80
2018,10,19,10,13,9.80
2018,10,19,10,14,9.80
2018,10,19,10,15,9.70
2018,10,19,10,16,9.70
2018,10,19,10,17,9.70
2018,10,19,10,18,9.70
2018,10,19,10,19,9.70
2018,10,19,10,20,9.70
2018,10,19,10,21,9.70
2018,10,19,10,22,9.70
2018,10,19,10,23,9.80
2018,10,19,10,24,9.80
2018,10,19,10,25,9.80
2018,10,19,10,26,9.90
2018,10,19,10,27,9.90
2018,10,19,10,28,9.90
2018,10,19,10,29,10.00
2018,10,19,10,30,10.10
2018,10,19,10,31,10.10
2018,10,19,10,32,10.20
2018,10,19,10,33,10.20
2018,10,19,10,34,10.30
2018,10,19,10,35,10.30
2018,10,19,10,36,10.30
2018,10,19,10,37,10.40
2018,10,19,10,38,10.40
2018,10,19,10,39,10.50
2018,10,19,10,40,10.50
2018,10,19,10,41,10.50
2018,10,19,10,42,10.60
2018,10,19,10,43,10.60
2018,10,19,10,44,10.70
2018,10,19,10,45,10.70
2018,10,19,10,46,10.70
2018,10,19,10,47,10.80
2018,10,19,10,48,10.90
2018,10,19,10,49,10.90
2018,10,19,10,50,11.00
2018,10,19,10,51,11.10
2018,10,19,10,52,11.20
2018,10,19,10,53,11.20
2018,10,19,10,54,11.20
2018,10,19,10,55,11.20
2018,10,19,10,56,11.30
2018,10,19,10,57,11.30
2018,10,19,10,58,11.30
2018,10,19,10,59,11.30
2018,10,19,11,00,11.40
2018,10,19,11,01,11.50
2018,10,19,11,02,11.50
2018,10,19,11,03,11.60
2018,10,19,11,04,11.60
2018,10,19,11,05,11.60
2018,10,19,11,06,11.60
2018,10,19,11,07,11.60
2018,10,19,11,08,11.60
2018,10,19,11,09,11.60
2018,10,19,11,10,11.60
2018,10,19,11,11,11.60
2018,10,19,11,12,11.60
2018,10,19,11,13,11.60
2018,10,19,11,14,11.60
2018,10,19,11,15,11.60
2018,10,19,11,16,11.60
2018,10,19,11,17,11.70
2018,10,19,11,18,11.70
2018,10,19,11,19,11.80
2018,10,19,11,20,11.90
2018,10,19,11,21,12.00
2018,10,19,11,22,12.00
2018,10,19,11,23,12.10
2018,10,19,11,24,12.10
2018,10,19,11,25,12.10
2018,10,19,11,26,12.20
2018,10,19,11,27,12.20
2018,10,19,11,28,12.20
2018,10,19,11,29,12.30
2018,10,19,11,30,12.30
2018,10,19,11,31,12.30
2018,10,19,11,32,12.30
2018,10,19,11,33,12.30
2018,10,19,11,34,12.20
2018,10,19,11,35,12.20
2018,10,19,11,36,12.20
2018,10,19,11,37,12.20
2018,10,19,11,38,12.20
2018,10,19,11,39,12.30
2018,10,19,11,40,12.30
2018,10,19,11,41,12.30
2018,10,19,11,42,12.30
2018,10,19,11,43,12.30
2018,10,19,11,44,12.30
2018,10,19,11,45,12.30
2018,10,19,11,46,12.30
2018,10,19,11,47,12.30
2018,10,19,11,48,12.30
2018,10,19,11,49,12.30
2018,10,19,11,50,12.30
2018,10,19,11,51,12.30
2018,10,19,11,52,12.30
2018,10,19,11,53,12.30
2018,10,19,11,54,12.40
2018,10,19,11,55,12.40
2018,10,19,11,56,12.40
2018,10,19,11,57,12.40
2018,10,19,11,58,12.40
2018,10,19,11,59,12.30
2018,10,19,12,00,12.30
2018,10,19,12,01,12.30
2018,10,19,12,02,12.40
2018,10,19,12,03,12.40
2018,10,19,12,04,12.40
2018,10,19,12,05,12.40
2018,10,19,12,06,12.40
2018,10,19,12,07,12.40
2018,10,19,12,08,12.40
2018,10,19,12,09,12.40
2018,10,19,12,10,12.50
2018,10,19,12,11,12.50
2018,10,19,12,12,12.60
2018,10,19,12,13,12.60
2018,10,19,12,14,12.60
2018,10,19,12,15,12.70
2018,10,19,12,16,12.70
2018,10,19,12,17,12.70
2018,10,19,12,18,12.70
2018,10,19,12,19,12.70
2018,10,19,12,20,12.70
2018,10,19,12,21,12.70
2018,10,19,12,22,12.80
2018,10,19,12,23,12.80
2018,10,19,12,24,12.80
2018,10,19,12,25,12.80
2018,10,19,12,26,12.90
2018,10,19,12,27,13.00
2018,10,19,12,28,13.00
2018,10,19,12,29,13.00
2018,10,19,12,30,13.00
2018,10,19,12,31,13.00
2018,10,19,12,32,13.00
2018,10,19,12,33,13.00
2018,10,19,12,34,13.00
2018,10,19,12,35,12.90
2018,10,19,12,36,12.90
2018,10,19,12,37,12.90
2018,10,19,12,38,12.90
2018,10,19,12,39,12.90
2018,10,19,12,40,12.90
2018,10,19,12,41,13.00
2018,10,19,12,42,13.00
2018,10,19,12,43,12.90
2018,10,19,12,44,12.90
2018,10,19,12,45,12.90
2018,10,19,12,46,12.90
2018,10,19,12,47,12.90
2018,10,19,12,48,12.90
2018,10,19,12,49,13.00
2018,10,19,12,50,13.00
2018,10,19,12,51,13.10
2018,10,19,12,52,13.20
2018,10,19,12,53,13.20
2018,10,19,12,54,13.20
2018,10,19,12,55,13.30
2018,10,19,12,56,13.30
2018,10,19,12,57,13.30
2018,10,19,12,58,13.30
2018,10,19,12,59,13.30
2018,10,19,13,00,13.30
2018,10,19,13,01,13.30
2018,10,19,13,02,13.30
2018,10,19,13,03,13.30
2018,10,19,13,04,13.30
2018,10,19,13,05,13.30
2018,10,19,13,06,13.30
2018,10,19,13,07,13.30
2018,10,19,13,08,13.30
2018,10,19,13,09,13.30
2018,10,19,13,10,13.30
2018,10,19,13,11,13.30
2018,10,19,13,12,13.40
2018,10,19,13,13,13.40
2018,10,19,13,14,13.50
2018,10,19,13,15,13.50
2018,10,19,13,16,13.50
2018,10,19,13,17,13.50
2018,10,19,13,18,13.60
2018,10,19,13,19,13.60
2018,10,19,13,20,13.70
2018,10,19,13,21,13.70
2018,10,19,13,22,13.70
2018,10,19,13,23,13.70
2018,10,19,13,24,13.70
2018,10,19,13,25,13.70
2018,10,19,13,26,13.70
2018,10,19,13,27,13.80
2018,10,19,13,28,13.80
2018,10,19,13,29,13.80
2018,10,19,13,30,13.80
2018,10,19,13,31,13.90
2018,10,19,13,32,13.90
2018,10,19,13,33,13.90
2018,10,19,13,34,13.90
2018,10,19,13,35,13.90
2018,10,19,13,36,13.90
2018,10,19,13,37,13.80
2018,10,19,13,38,13.80
2018,10,19,13,39,13.80
2018,10,19,13,40,13.80
2018,10,19,13,41,13.80
2018,10,19,13,42,13.80
2018,10,19,13,43,13.80
2018,10,19,13,44,13.80
2018,10,19,13,45,13.80
2018,10,19,13,46,13.80
2018,10,19,13,47,13.80
2018,10,19,13,48,13.80
2018,10,19,13,49,13.80
2018,10,19,13,50,13.80
2018,10,19,13,51,13.80
2018,10,19,13,52,13.80
2018,10,19,13,53,13.80
2018,10,19,13,54,13.80
2018,10,19,13,55,13.80
2018,10,19,13,56,13.80
2018,10,19,13,57,13.80
2018,10,19,13,58,13.80
2018,10,19,13,59,13.90
2018,10,19,14,00,13.90
2018,10,19,14,01,13.90
2018,10,19,14,02,13.90
2018,10,19,14,03,13.90
2018,10,19,14,04,14.00
2018,10,19,14,05,14.00
2018,10,19,14,06,14.00
2018,10,19,14,07,14.00
2018,10,19,14,08,13.90
2018,10,19,14,09,14.00
2018,10,19,14,10,14.00
2018,10,19,14,11,14.00
2018,10,19,14,12,14.00
2018,10,19,14,13,14.10
2018,10,19,14,14,14.10
2018,10,19,14,15,14.10
2018,10,19,14,16,14.10
2018,10,19,14,17,14.10
2018,10,19,14,18,14.20
2018,10,19,14,19,14.20
2018,10,19,14,20,14.20
2018,10,19,14,21,14.20
2018,10,19,14,22,14.20
2018,10,19,14,23,14.20
2018,10,19,14,24,14.20
2018,10,19,14,25,14.20
2018,10,19,14,26,14.20
2018,10,19,14,27,14.20
2018,10,19,14,28,14.30
2018,10,19,14,29,14.30
2018,10,19,14,30,14.30
2018,10,19,14,31,14.30
2018,10,19,14,32,14.30
2018,10,19,14,33,14.30
2018,10,19,14,34,14.30
2018,10,19,14,35,14.30
2018,10,19,14,36,14.40
2018,10,19,14,37,14.40
2018,10,19,14,38,14.40
2018,10,19,14,39,14.40
2018,10,19,14,40,14.40
2018,10,19,14,41,14.40
2018,10,19,14,42,14.40
2018,10,19,14,43,14.30
2018,10,19,14,44,14.30
2018,10,19,14,45,14.30
2018,10,19,14,46,14.30
2018,10,19,14,47,14.30
2018,10,19,14,48,14.20
2018,10,19,14,49,14.20
2018,10,19,14,50,14.20
2018,10,19,14,51,14.20
2018,10,19,14,52,14.20
2018,10,19,14,53,14.20
2018,10,19,14,54,14.20
2018,10,19,14,55,14.10
2018,10,19,14,56,14.10
2018,10,19,14,57,14.00
2018,10,19,14,58,14.00
2018,10,19,14,59,13.90
2018,10,19,15,00,13.90
2018,10,19,15,01,13.90
2018,10,19,15,02,13.90
2018,10,19,15,03,13.90
2018,10,19,15,04,13.90
2018,10,19,15,05,13.90
2018,10,19,15,06,13.90
2018,10,19,15,07,13.90
2018,10,19,15,08,13.90
2018,10,19,15,09,13.80
2018,10,19,15,10,13.80
2018,10,19,15,11,13.80
2018,10,19,15,12,13.80
2018,10,19,15,13,13.80
2018,10,19,15,14,13.80
2018,10,19,15,15,13.80
2018,10,19,15,16,13.80
2018,10,19,15,17,13.90
2018,10,19,15,18,13.90
2018,10,19,15,19,13.90
2018,10,19,15,20,13.90
2018,10,19,15,21,13.90
2018,10,19,15,22,14.00
2018,10,19,15,23,14.00
2018,10,19,15,24,14.10
2018,10,19,15,25,14.10
2018,10,19,15,26,14.10
2018,10,19,15,27,14.20
2018,10,19,15,28,14.20
2018,10,19,15,29,14.20
2018,10,19,15,30,14.20
2018,10,19,15,31,14.30
2018,10,19,15,32,14.30
2018,10,19,15,33,14.40
2018,10,19,15,34,14.50
2018,10,19,15,35,14.60
2018,10,19,15,36,14.60
2018,10,19,15,37,14.60
2018,10,19,15,38,14.60
2018,10,19,15,39,14.60
2018,10,19,15,40,14.60
2018,10,19,15,41,14.70
2018,10,19,15,42,14.70
2018,10,19,15,43,14.80
2018,10,19,15,44,14.80
2018,10,19,15,45,14.80
2018,10,19,15,46,14.80
2018,10,19,15,47,14.80
2018,10,19,15,48,14.80
2018,10,19,15,49,14.80
2018,10,19,15,50,14.80
2018,10,19,15,51,14.80
2018,10,19,15,52,14.80
2018,10,19,15,53,14.80
2018,10,19,15,54,14.90
2018,10,19,15,55,14.90
2018,10,19,15,56,14.90
2018,10,19,15,57,15.00
2018,10,19,15,58,15.00
2018,10,19,15,59,15.00
2018,10,19,16,00,15.10
2018,10,19,16,01,15.10
2018,10,19,16,02,15.10
2018,10,19,16,03,15.20
2018,10,19,16,04,15.20
2018,10,19,16,05,15.20
2018,10,19,16,06,15.30
2018,10,19,16,07,15.30
2018,10,19,16,08,15.40
2018,10,19,16,09,15.40
2018,10,19,16,10,15.40
2018,10,19,16,11,15.50
2018,10,19,16,12,15.50
2018,10,19,16,13,15.60
2018,10,19,16,14,15.60
2018,10,19,16,15,15.70
2018,10,19,16,16,15.70
2018,10,19,16,17,15.70
2018,10,19,16,18,15.70
2018,10,19,16,19,15.70
2018,10,19,16,20,15.70
2018,10,19,16,21,15.70
2018,10,19,16,22,15.60
2018,10,19,16,23,15.70
2018,10,19,16,24,15.70
2018,10,19,16,25,15.70
2018,10,19,16,26,15.70
2018,10,19,16,27,15.70
2018,10,19,16,28,15.70
2018,10,19,16,29,15.70
2018,10,19,16,30,15.70
2018,10,19,16,31,15.60
2018,10,19,16,32,15.60
2018,10,19,16,33,15.50
2018,10,19,16,34,15.50
2018,10,19,16,35,15.50
2018,10,19,16,36,15.50
2018,10,19,16,37,15.50
2018,10,19,16,38,15.40
2018,10,19,16,39,15.40
2018,10,19,16,40,15.50
2018,10,19,16,41,15.50
2018,10,19,16,42,15.50
2018,10,19,16,43,15.50
2018,10,19,16,44,15.50
2018,10,19,16,45,15.40
2018,10,19,16,46,15.30
2018,10,19,16,47,15.20
2018,10,19,16,48,15.10
2018,10,19,16,49,15.00
2018,10,19,16,50,15.00
2018,10,19,16,51,14.90
2018,10,19,16,52,14.90
2018,10,19,16,53,14.80
2018,10,19,16,54,14.80
2018,10,19,16,55,14.70
2018,10,19,16,56,14.70
2018,10,19,16,57,14.60
2018,10,19,16,58,14.60
2018,10,19,16,59,14.50
2018,10,19,17,00,14.50
2018,10,19,17,01,14.50
2018,10,19,17,02,14.50
2018,10,19,17,03,14.50
2018,10,19,17,04,14.50
2018,10,19,17,05,14.50
2018,10,19,17,06,14.40
2018,10,19,17,07,14.30
2018,10,19,17,08,14.30
2018,10,19,17,09,14.20
2018,10,19,17,10,14.20
2018,10,19,17,11,14.20
2018,10,19,17,12,14.20
2018,10,19,17,13,14.20
2018,10,19,17,14,14.20
2018,10,19,17,15,14.20
2018,10,19,17,16,14.20
2018,10,19,17,17,14.20
2018,10,19,17,18,14.20
2018,10,19,17,19,14.20
2018,10,19,17,20,14.20
2018,10,19,17,21,14.20
2018,10,19,17,22,14.20
2018,10,19,17,23,14.20
2018,10,19,17,24,14.20
2018,10,19,17,25,14.20
2018,10,19,17,26,14.20
2018,10,19,17,27,14.20
2018,10,19,17,28,14.20
2018,10,19,17,29,14.20
2018,10,19,17,30,14.20
2018,10,19,17,31,14.20
2018,10,19,17,32,14.20
2018,10,19,17,33,14.20
2018,10,19,17,34,14.20
2018,10,19,17,35,14.20
2018,10,19,17,36,14.20
2018,10,19,17,37,14.30
2018,10,19,17,38,14.30
2018,10,19,17,39,14.30
2018,10,19,17,40,14.30
2018,10,19,17,41,14.30
2018,10,19,17,42,14.20
2018,10,19,17,43,14.20
2018,10,19,17,44,14.20
2018,10,19,17,45,14.20
2018,10,19,17,46,14.20